TimeCST,TemperatureF,Dew PointF,Humidity,Sea Level PressureIn,VisibilityMPH,Wind Direction,Wind SpeedMPH,Gust SpeedMPH,PrecipitationIn,Events,Conditions,WindDirDegrees,DateUTC
12:16 AM,3.2,-0.4,85,30.11,10.0,Calm,Calm,-,N/A,,Scattered Clouds,0,2012-12-14 06:16:00
12:36 AM,3.2,-0.4,85,30.12,10.0,Calm,Calm,-,N/A,,Clear,0,2012-12-14 06:36:00
12:55 AM,3.2,-0.4,85,30.11,5.0,Calm,Calm,-,N/A,,Haze,0,2012-12-14 06:55:00
1:16 AM,3.2,-0.4,85,30.11,7.0,Calm,Calm,-,N/A,,Clear,0,2012-12-14 07:16:00
1:36 AM,3.2,-2.2,78,30.10,7.0,Calm,Calm,-,N/A,,Clear,0,2012-12-14 07:36:00
1:55 AM,3.2,-2.2,78,30.10,10.0,Calm,Calm,-,N/A,,Clear,0,2012-12-14 07:55:00
2:16 AM,3.2,-2.2,78,30.11,7.0,Calm,Calm,-,N/A,,Clear,0,2012-12-14 08:16:00
2:36 AM,3.2,-2.2,78,30.11,10.0,Calm,Calm,-,N/A,,Clear,0,2012-12-14 08:36:00
2:56 AM,3.2,-0.4,85,30.11,7.0,Calm,Calm,-,N/A,,Clear,0,2012-12-14 08:56:00
3:16 AM,3.2,-2.2,78,30.10,10.0,Calm,Calm,-,N/A,,Clear,0,2012-12-14 09:16:00
3:36 AM,1.4,-2.2,85,30.11,10.0,Calm,Calm,-,N/A,,Mostly Cloudy,0,2012-12-14 09:36:00
3:56 AM,1.4,-2.2,85,30.10,10.0,Calm,Calm,-,N/A,,Mostly Cloudy,0,2012-12-14 09:56:00
4:16 AM,3.2,-0.4,85,30.10,7.0,Calm,Calm,-,N/A,,Mostly Cloudy,0,2012-12-14 10:16:00
4:36 AM,10.4,6.8,85,30.10,0.8,Calm,Calm,-,N/A,,Overcast,0,2012-12-14 10:36:00
4:56 AM,8.6,5.0,85,30.10,0.2,Calm,Calm,-,N/A,Fog,Light Freezing Fog,0,2012-12-14 10:56:00
5:16 AM,6.8,3.2,85,30.10,0.2,Calm,Calm,-,N/A,Fog,Light Freezing Fog,0,2012-12-14 11:16:00
5:36 AM,6.8,1.4,79,30.09,0.2,Calm,Calm,-,N/A,,Haze,0,2012-12-14 11:36:00
5:56 AM,8.6,3.2,79,30.09,0.2,Calm,Calm,-,N/A,Fog,Light Freezing Fog,0,2012-12-14 11:56:00
6:16 AM,10.4,6.8,85,30.09,0.5,Calm,Calm,-,N/A,Fog,Light Freezing Fog,0,2012-12-14 12:16:00
6:36 AM,14.0,10.4,86,30.09,0.8,Calm,Calm,-,N/A,,Overcast,0,2012-12-14 12:36:00
6:55 AM,14.0,10.4,86,30.08,0.8,East,3.5,-,N/A,,Overcast,90,2012-12-14 12:55:00
7:16 AM,15.8,12.2,86,30.09,2.0,Calm,Calm,-,N/A,,Overcast,0,2012-12-14 13:16:00
7:36 AM,15.8,12.2,86,30.08,1.8,East,4.6,-,N/A,,Overcast,100,2012-12-14 13:36:00
7:55 AM,17.6,12.2,79,30.08,0.5,East,5.8,-,N/A,Fog,Light Freezing Fog,100,2012-12-14 13:55:00
8:16 AM,17.6,14.0,86,30.08,0.5,East,4.6,-,N/A,Fog,Light Freezing Fog,100,2012-12-14 14:16:00
8:36 AM,17.6,14.0,86,30.08,0.8,ESE,3.5,-,N/A,,Overcast,110,2012-12-14 14:36:00
8:55 AM,17.6,14.0,86,30.09,1.2,East,3.5,-,N/A,,Overcast,100,2012-12-14 14:55:00
9:16 AM,17.6,14.0,86,30.09,0.8,East,4.6,-,N/A,,Overcast,90,2012-12-14 15:16:00
9:36 AM,17.6,14.0,86,30.09,0.5,ESE,4.6,-,N/A,Fog,Light Freezing Fog,110,2012-12-14 15:36:00
9:55 AM,17.6,15.8,93,30.09,0.8,ESE,4.6,-,N/A,,Overcast,110,2012-12-14 15:55:00
10:16 AM,17.6,15.8,93,30.09,0.2,ESE,3.5,-,N/A,Fog,Light Freezing Fog,110,2012-12-14 16:16:00
10:36 AM,17.6,15.8,93,30.11,0.2,ESE,3.5,-,N/A,Fog,Light Freezing Fog,120,2012-12-14 16:36:00
10:55 AM,19.4,15.8,86,30.10,0.2,East,4.6,-,N/A,Fog,Light Freezing Fog,100,2012-12-14 16:55:00
11:16 AM,19.4,15.8,86,30.10,0.2,Calm,Calm,-,N/A,Fog,Light Freezing Fog,0,2012-12-14 17:16:00
11:36 AM,21.2,17.6,86,30.09,1.0,East,4.6,-,N/A,,Overcast,80,2012-12-14 17:36:00
11:55 AM,21.2,17.6,86,30.08,3.0,East,4.6,-,N/A,,Overcast,90,2012-12-14 17:55:00
12:16 PM,21.2,19.4,93,30.06,4.0,East,3.5,-,N/A,,Overcast,100,2012-12-14 18:16:00
12:36 PM,23.0,19.4,86,30.06,4.0,East,3.5,-,N/A,,Overcast,100,2012-12-14 18:36:00
12:55 PM,23.0,19.4,86,30.05,5.0,ESE,3.5,-,N/A,,Overcast,110,2012-12-14 18:55:00
1:16 PM,23.0,19.4,86,30.04,5.0,Calm,Calm,-,N/A,,Overcast,0,2012-12-14 19:16:00
1:36 PM,23.0,19.4,86,30.03,7.0,East,4.6,-,N/A,,Scattered Clouds,100,2012-12-14 19:36:00
1:56 PM,24.8,21.2,86,30.03,5.0,East,5.8,-,N/A,,Mostly Cloudy,100,2012-12-14 19:56:00
2:16 PM,24.8,21.2,86,30.03,7.0,ESE,3.5,-,N/A,,Overcast,110,2012-12-14 20:16:00
2:36 PM,24.8,21.2,86,30.01,5.0,ESE,4.6,-,N/A,,Mostly Cloudy,110,2012-12-14 20:36:00
2:56 PM,24.8,21.2,86,30.00,5.0,East,4.6,-,N/A,,Mostly Cloudy,80,2012-12-14 20:56:00
3:16 PM,24.8,21.2,86,29.99,5.0,East,6.9,-,N/A,,Scattered Clouds,100,2012-12-14 21:16:00
3:36 PM,24.8,21.2,86,29.99,5.0,East,5.8,-,N/A,,Scattered Clouds,90,2012-12-14 21:36:00
4:16 PM,24.8,21.2,86,29.99,5.0,East,4.6,-,N/A,,Overcast,100,2012-12-14 22:16:00
4:36 PM,24.8,21.2,86,29.99,7.0,East,4.6,-,N/A,,Overcast,100,2012-12-14 22:36:00
4:55 PM,24.8,21.2,86,29.98,7.0,East,4.6,-,N/A,,Overcast,100,2012-12-14 22:55:00
5:16 PM,24.8,21.2,86,29.98,7.0,ESE,5.8,-,N/A,,Scattered Clouds,110,2012-12-14 23:16:00
5:36 PM,24.8,21.2,86,29.97,7.0,East,6.9,-,N/A,,Clear,100,2012-12-14 23:36:00
5:56 PM,24.8,21.2,86,29.96,7.0,East,5.8,-,N/A,,Clear,100,2012-12-14 23:56:00
6:16 PM,24.8,21.2,86,29.96,7.0,East,5.8,-,N/A,,Clear,100,2012-12-15 00:16:00
6:36 PM,24.8,23.0,93,29.94,7.0,East,8.1,-,N/A,,Clear,100,2012-12-15 00:36:00
6:56 PM,26.6,23.0,86,29.94,7.0,East,9.2,-,N/A,,Clear,100,2012-12-15 00:56:00
7:16 PM,26.6,24.8,93,29.94,10.0,East,8.1,-,N/A,,Clear,100,2012-12-15 01:16:00
7:36 PM,26.6,24.8,93,29.93,10.0,East,6.9,-,N/A,,Clear,100,2012-12-15 01:36:00
7:56 PM,26.6,24.8,93,29.93,10.0,East,5.8,-,N/A,,Clear,100,2012-12-15 01:56:00
8:16 PM,26.6,24.8,93,29.93,10.0,East,5.8,-,N/A,,Clear,100,2012-12-15 02:16:00
8:36 PM,26.6,24.8,93,29.93,10.0,East,6.9,-,N/A,,Clear,100,2012-12-15 02:36:00
8:56 PM,26.6,24.8,93,29.92,10.0,East,6.9,-,N/A,,Clear,100,2012-12-15 02:56:00
9:16 PM,26.6,24.8,93,29.91,10.0,East,8.1,-,N/A,,Clear,100,2012-12-15 03:16:00
9:36 PM,26.6,24.8,93,29.91,10.0,East,6.9,-,N/A,,Clear,100,2012-12-15 03:36:00
9:56 PM,26.6,24.8,93,29.90,10.0,East,6.9,-,N/A,,Clear,100,2012-12-15 03:56:00
10:16 PM,26.6,24.8,93,29.89,10.0,East,6.9,-,N/A,,Clear,100,2012-12-15 04:16:00
10:36 PM,26.6,24.8,93,29.89,10.0,ESE,8.1,-,N/A,,Clear,110,2012-12-15 04:36:00
10:56 PM,26.6,24.8,93,29.88,10.0,East,6.9,-,N/A,,Clear,100,2012-12-15 04:56:00
11:16 PM,28.4,24.8,86,29.87,10.0,East,9.2,-,N/A,,Clear,100,2012-12-15 05:16:00
11:36 PM,28.4,24.8,86,29.87,10.0,East,8.1,-,N/A,,Clear,100,2012-12-15 05:36:00
11:56 PM,28.4,24.8,86,29.86,7.0,ESE,8.1,-,N/A,,Clear,110,2012-12-15 05:56:00